Charlevoix, MI

2:10 AM EST on January 21, 2017 (GMT -0500)
Charlevoix

Weather History for KCVX - May, 2012

Change the Weather History Date:

Wednesday, May 9, 2012

  Actual Average Record
Temperature  
Mean Temperature 48 °F -  
Max Temperature 54 °F 73 °F 80 °F (2005)
Min Temperature 42 °F 45 °F 33 °F (2016)
Degree Days  
Heating Degree Days 17    
Moisture  
Dew Point 39 °F    
Average Humidity 77    
Maximum Humidity 98    
Minimum Humidity 48    
Precipitation  
Precipitation 0.00 in - - ()
Sea Level Pressure  
Sea Level Pressure 29.87 in    
Wind  
Wind Speed 7 mph (WNW)    
Max Wind Speed 13 mph    
Max Gust Speed 17 mph    
Visibility 10 miles    
Events Rain    
Averages and records for this station are not official NWS values.
T = Trace of Precipitation, MM = Missing Value Source: NWS Daily Summary

Daily Weather History Graph

Daily Weather History Graph

Search for Another Location

Airport or City:

Trip Planner

Search our weather history database for the weather conditions in past years. The results will help you decide how hot, cold, wet, or windy it might be!

Date:

Astronomy

May. 09, 2012 Rise Set
Actual Time 6:17 AM EDT 8:57 PM EDT
Civil Twilight 5:44 AM EDT 9:31 PM EDT
Nautical Twilight 5:01 AM EDT 10:14 PM EDT
Astronomical Twilight 4:12 AM EDT 11:03 PM EDT
Moon 12:10 AM EDT (5/9) 9:29 AM EDT (5/9)
Length of Visible Light 15h 47m
Length of Day
14h 40m
Waning Gibbous, 83% of the Moon is Illuminated
May 9
Waning Gibbous
May 12
Last Quarter
May 20
New
May 28
First Quarter
Jun 4
Full

Hourly Weather History & Observations

Time (EDT) Temp. Windchill Dew Point Humidity Pressure Visibility Wind Dir Wind Speed Gust Speed Precip Events Conditions
12:14 AM 44.2 °F 41.8 °F 43.0 °F 95% 29.83 in 10.0 mi NW 4.6 mph - N/A Rain Rain
12:35 AM 44.6 °F 41.4 °F 43.3 °F 95% 29.83 in 10.0 mi NW 5.8 mph - N/A   Overcast
12:54 AM 44.1 °F 40.8 °F 43.0 °F 96% 29.83 in 10.0 mi West 5.8 mph - N/A   Overcast
1:14 AM 44.2 °F 41.0 °F 43.2 °F 96% 29.83 in 10.0 mi WNW 5.8 mph - N/A Rain Rain
1:34 AM 44.2 °F 41.0 °F 43.3 °F 97% 29.82 in 7.0 mi NW 5.8 mph - N/A Rain Rain
1:54 AM 43.7 °F 41.1 °F 43.0 °F 97% 29.82 in 10.0 mi NW 4.6 mph - N/A   Drizzle
2:14 AM 43.9 °F 40.5 °F 43.2 °F 97% 29.82 in 10.0 mi WNW 5.8 mph - N/A Rain Light Rain
2:34 AM 44.1 °F 40.1 °F 43.5 °F 98% 29.81 in 10.0 mi West 6.9 mph - N/A Rain Light Rain
2:55 AM 43.7 °F 41.1 °F 43.0 °F 97% 29.81 in 10.0 mi WSW 4.6 mph - N/A   Overcast
3:14 AM 43.7 °F 39.7 °F 42.8 °F 97% 29.81 in 10.0 mi West 6.9 mph - N/A   Overcast
3:35 AM 43.5 °F 40.1 °F 42.8 °F 97% 29.81 in 10.0 mi West 5.8 mph - N/A   Overcast
3:54 AM 43.7 °F 39.7 °F 42.8 °F 97% 29.80 in 10.0 mi West 6.9 mph - N/A   Overcast
4:15 AM 43.5 °F 38.3 °F 42.8 °F 97% 29.81 in 10.0 mi West 9.2 mph - N/A   Overcast
4:35 AM 43.0 °F 38.8 °F 42.1 °F 97% 29.81 in 10.0 mi West 6.9 mph - N/A   Overcast
4:54 AM 42.8 °F 37.5 °F 41.9 °F 97% 29.81 in 10.0 mi West 9.2 mph - N/A   Overcast
5:15 AM 42.4 °F 38.1 °F 41.4 °F 96% 29.82 in 10.0 mi West 6.9 mph - N/A   Overcast
5:34 AM 42.3 °F 38.6 °F 41.0 °F 95% 29.82 in 10.0 mi West 5.8 mph - N/A   Overcast
5:55 AM 42.1 °F 37.7 °F 41.0 °F 96% 29.82 in 10.0 mi West 6.9 mph - N/A   Overcast
6:14 AM 42.4 °F 39.6 °F 41.4 °F 96% 29.82 in 10.0 mi WNW 4.6 mph - N/A   Overcast
6:35 AM 42.8 °F 39.3 °F 41.4 °F 95% 29.82 in 10.0 mi WNW 5.8 mph - N/A   Overcast
6:54 AM 42.8 °F 38.6 °F 41.4 °F 95% 29.83 in 10.0 mi WNW 6.9 mph - N/A   Overcast
7:14 AM 42.8 °F 39.3 °F 41.9 °F 97% 29.84 in 10.0 mi NW 5.8 mph - N/A   Overcast
7:35 AM 42.4 °F 37.0 °F 41.4 °F 96% 29.84 in 7.0 mi NW 9.2 mph - N/A   Overcast
8:15 AM 42.3 °F 38.6 °F 41.4 °F 97% 29.86 in 7.0 mi NNW 5.8 mph - N/A Rain Light Rain
8:35 AM 43.0 °F 39.5 °F 41.7 °F 95% 29.86 in 10.0 mi NW 5.8 mph - N/A   Overcast
8:54 AM 43.7 °F 39.7 °F 42.3 °F 95% 29.87 in 10.0 mi NW 6.9 mph - N/A   Overcast
9:15 AM 44.2 °F 40.3 °F 42.3 °F 93% 29.87 in 10.0 mi NW 6.9 mph - N/A   Overcast
9:34 AM 45.5 °F 41.8 °F 43.2 °F 92% 29.87 in 10.0 mi NW 6.9 mph - N/A   Overcast
9:54 AM 45.5 °F 41.3 °F 42.1 °F 88% 29.87 in 10.0 mi NNW 8.1 mph - N/A   Overcast
10:15 AM 45.3 °F 40.6 °F 41.7 °F 87% 29.87 in 10.0 mi NW 9.2 mph - N/A   Scattered Clouds
10:35 AM 45.9 °F 42.3 °F 41.4 °F 84% 29.87 in 10.0 mi NNW 6.9 mph - N/A   Clear
10:54 AM 45.5 °F 40.3 °F 41.0 °F 84% 29.87 in 10.0 mi NNW 10.4 mph 16.1 mph N/A   Clear
11:15 AM 45.9 °F 40.4 °F 41.0 °F 83% 29.88 in 10.0 mi NNW 11.5 mph - N/A   Clear
11:34 AM 47.3 °F - 40.8 °F 78% 29.89 in 10.0 mi NW 12.7 mph 17.3 mph N/A   Clear
11:54 AM 48.0 °F - 40.1 °F 74% 29.89 in 10.0 mi NW 11.5 mph 17.3 mph N/A   Clear
12:14 PM 48.9 °F - 40.3 °F 72% 29.89 in 10.0 mi NNW 9.2 mph 16.1 mph N/A   Scattered Clouds
12:34 PM 49.5 °F - 39.7 °F 69% 29.89 in 10.0 mi NNW 9.2 mph - N/A   Scattered Clouds
12:55 PM 49.8 °F - 40.3 °F 70% 29.88 in 10.0 mi NW 8.1 mph - N/A   Clear
1:14 PM 51.1 °F - 40.8 °F 68% 29.88 in 10.0 mi WNW 9.2 mph - N/A   Clear
1:34 PM 51.3 °F - 41.2 °F 68% 29.89 in 10.0 mi WNW 10.4 mph - N/A   Mostly Cloudy
1:55 PM 51.1 °F - 40.6 °F 67% 29.89 in 10.0 mi West 8.1 mph - N/A   Overcast
2:14 PM 51.4 °F - 39.7 °F 64% 29.89 in 10.0 mi WNW 8.1 mph - N/A   Overcast
2:34 PM 52.3 °F - 37.4 °F 57% 29.89 in 10.0 mi WNW 11.5 mph - N/A   Overcast
2:54 PM 52.3 °F - 36.0 °F 54% 29.89 in 10.0 mi WNW 10.4 mph - N/A   Overcast
3:14 PM 52.9 °F - 36.5 °F 54% 29.89 in 10.0 mi WNW 8.1 mph - N/A   Overcast
3:35 PM 53.4 °F - 37.0 °F 54% 29.89 in 10.0 mi West 9.2 mph - N/A   Overcast
3:54 PM 54.1 °F - 37.8 °F 54% 29.89 in 10.0 mi West 10.4 mph - N/A   Scattered Clouds
4:14 PM 54.0 °F - 35.8 °F 50% 29.89 in 10.0 mi West 9.2 mph - N/A   Clear
4:35 PM 53.1 °F - 34.3 °F 49% 29.89 in 10.0 mi NW 10.4 mph - N/A   Clear
4:54 PM 52.7 °F - 37.0 °F 55% 29.89 in 10.0 mi WNW 9.2 mph - N/A   Clear
5:15 PM 52.9 °F - 36.0 °F 53% 29.89 in 10.0 mi WNW 9.2 mph - N/A   Clear
5:54 PM 52.3 °F - 33.8 °F 49% 29.88 in 10.0 mi NW 9.2 mph - N/A   Clear
6:15 PM 51.8 °F - 32.7 °F 48% 29.88 in 10.0 mi WNW 8.1 mph - N/A   Clear
6:34 PM 51.1 °F - 33.6 °F 51% 29.89 in 10.0 mi WNW 9.2 mph - N/A   Clear
6:55 PM 50.2 °F - 32.2 °F 50% 29.89 in 10.0 mi WNW 11.5 mph - N/A   Clear
7:14 PM 50.4 °F - 31.6 °F 49% 29.88 in 10.0 mi NW 10.4 mph - N/A   Clear
7:34 PM 49.8 °F - 32.0 °F 50% 29.88 in 10.0 mi WNW 10.4 mph - N/A   Clear
7:55 PM 48.2 °F - 32.9 °F 55% 29.88 in 10.0 mi WNW 10.4 mph - N/A   Clear
8:14 PM 46.8 °F - 33.4 °F 60% 29.89 in 10.0 mi WNW 9.2 mph - N/A   Clear
8:34 PM 46.6 °F - 32.0 °F 57% 29.89 in 10.0 mi WNW 8.1 mph - N/A   Clear
8:55 PM 46.2 °F 42.7 °F 30.7 °F 55% 29.89 in 10.0 mi WNW 6.9 mph - N/A   Clear
9:14 PM 45.0 °F 41.2 °F 32.4 °F 61% 29.89 in 10.0 mi NW 6.9 mph - N/A   Clear
9:34 PM 44.1 °F 41.5 °F 33.1 °F 65% 29.90 in 10.0 mi NNW 4.6 mph - N/A   Clear
9:55 PM 43.9 °F 41.3 °F 33.8 °F 68% 29.91 in 10.0 mi NW 4.6 mph - N/A   Clear
10:14 PM 43.0 °F 41.3 °F 34.9 °F 73% 29.91 in 10.0 mi NW 3.5 mph - N/A   Clear
10:34 PM 42.8 °F 41.1 °F 35.8 °F 76% 29.92 in 10.0 mi West 3.5 mph - N/A   Clear
10:55 PM 42.3 °F - 36.5 °F 80% 29.92 in 10.0 mi Calm Calm - N/A   Clear
11:14 PM 42.6 °F 40.9 °F 36.3 °F 78% 29.92 in 10.0 mi NW 3.5 mph - N/A   Clear
11:35 PM 43.0 °F 39.5 °F 34.0 °F 71% 29.92 in 10.0 mi WNW 5.8 mph - N/A   Clear
11:54 PM 43.5 °F 38.9 °F 32.5 °F 65% 29.92 in 10.0 mi WNW 8.1 mph - N/A   Clear